[[{"header":{"parameterUnit":"m.s-1","parameterCategory":1,"la1":30.2991,"la2":30.254,"lo1":-89.0895,"lo2":-89.0444,"dy":0.0017,"dx":0.0017,"nx":28,"ny":28,"refTime":"2023-10-13T21:00:00:Z","depth":0,"parameterNumber":2,"parameterNumberName":"U-component_of_WINDS"},"data":[0,0,0,0,0,0,0,0,0,0,0,0,0,0,0,0,0,0,0,0,0,0,0,0,0,0,0,0,0,0,0,0,0,0,0,0,0,0,0,0,0,0,0,0,0,0,0,0,0,0,0,0,0,0,0,0,0,0,2.2439,2.2438,0,2.2424,2.2424,2.2424,2.2288,2.2285,2.2282,2.2278,2.2269,2.2272,2.2275,0,0,0,0,0,0,0,0,0,0,0,0,0,2.2353,2.2355,2.2439,2.2438,2.2438,2.2424,2.2424,2.2424,2.2289,2.2285,2.2281,2.2277,2.2268,2.2271,2.2275,0,0,0,0,0,0,0,0,0,0,0,0,0,2.237,2.2356,2.2439,2.2369,2.2363,2.2424,2.2424,2.2424,2.229,2.2285,2.228,2.2275,2.2267,2.2271,2.2275,2.2404,0,0,2.2289,2.2291,0,0,0,0,0,0,0,0,2.2369,2.2373,2.238,2.2374,2.2367,2.2353,2.239,2.2417,2.2291,2.2318,2.2278,2.2272,2.2301,2.2302,2.2311,2.2404,2.2403,2.2289,2.2292,2.2294,2.2295,0,0,0,0,0,0,0,2.2368,2.2373,2.2433,2.238,2.2372,2.234,2.2337,2.2395,2.2338,2.2315,2.2305,2.2305,2.2297,2.2307,2.231,2.2403,2.2289,2.2293,2.2296,2.2297,2.2599,2.2604,0,0,0,0,0,0,2.2376,2.2373,2.2433,2.2433,2.2355,2.2346,2.2342,2.2363,2.2337,2.2328,2.2309,2.2299,2.2302,2.2305,2.2309,2.2457,2.2294,2.2298,2.23,2.2594,2.26,2.2606,0,0,0,0,0,0,2.2375,2.2383,2.2434,2.24,2.2404,2.2352,2.2377,2.2365,2.2375,2.2333,2.2323,2.233,2.2298,2.2303,2.2381,2.2455,2.23,2.2304,2.2587,2.2596,2.2603,2.2755,0,0,0,0,0,0,2.2373,2.2383,2.2431,2.2402,2.2406,2.2505,2.2381,2.2368,2.2382,2.2368,2.235,2.2342,2.2295,2.2375,2.2385,2.2458,2.2307,2.258,2.2591,2.26,2.2743,2.2767,2.2787,0,0,0,0,0,2.237,2.2476,2.2434,2.2442,2.2465,2.251,2.2512,2.2455,2.2389,2.2437,2.2409,2.2342,2.2445,2.2384,2.2394,2.247,2.2575,2.2588,2.26,2.2733,2.2762,2.2787,0,0,0,0,0,0,2.2517,2.2471,2.2424,2.2523,2.2521,2.2487,2.2545,2.2488,2.2506,2.2493,2.2422,2.2419,2.2508,2.2496,2.2429,2.2592,2.2498,2.2513,2.2596,2.2624,2.2646,2.2646,2.2311,0,0,0,0,0,2.256,2.2599,2.2557,2.2649,2.265,2.2598,2.2616,2.2571,2.2567,2.2567,2.2545,2.2545,2.2577,2.26,2.2627,2.274,2.2734,2.2797,2.282,2.2838,2.2852,2.291,2.2937,2.2646,2.2646,2.2645,0,0,2.2651,2.263,2.266,2.2677,2.2671,2.2714,2.2599,2.265,2.2681,2.2575,2.2646,2.263,2.2626,2.2722,2.2763,2.2715,2.2931,2.2854,2.2869,2.2872,2.2925,2.2953,2.2977,2.2654,2.2653,2.2651,0,0,2.2838,2.2827,2.29,2.2895,2.2886,2.2851,2.2869,2.2843,2.2828,2.2898,2.2818,2.2856,2.2912,2.2912,2.2919,2.3104,2.3043,2.3115,2.3232,2.329,2.3313,2.3333,2.3398,2.3422,2.3129,2.313,2.313,0,2.2953,2.3012,2.2946,2.3001,2.3011,2.2915,2.2989,2.2989,2.299,2.3,2.2945,2.3013,2.3004,2.3097,2.3142,2.3152,2.317,2.3117,2.3314,2.3334,2.3352,2.3413,2.3438,2.3138,2.3137,2.3136,2.3136,0,2.3153,2.3196,2.3257,2.3258,2.3275,2.334,2.3284,2.331,2.3263,2.3234,2.3307,2.3291,2.3313,2.3332,2.3289,2.342,2.339,2.3327,2.3231,2.3389,2.3446,2.3469,2.3151,2.3148,2.3145,2.3143,0,0,2.3433,2.3394,2.3418,2.3416,2.3398,2.3431,2.3491,2.351,2.3533,2.3537,2.3586,2.3636,2.3576,2.3585,2.354,2.3591,2.3737,2.352,2.3519,2.3561,2.388,2.3927,2.3955,2.3696,2.3701,2.3704,2.388,0,2.3612,2.3711,2.3653,2.3761,2.38,2.3708,2.3761,2.3756,2.373,2.376,2.3732,2.3768,2.3687,2.3691,2.3737,2.371,2.38,2.3696,2.3742,2.3744,2.3745,2.3985,2.4036,2.4202,2.3902,2.3905,2.3908,0,2.3835,2.3845,2.3957,2.3929,2.3943,2.3992,2.4003,2.4033,2.4026,2.4003,2.4012,2.3954,2.4013,2.3918,2.3998,2.3928,2.3944,2.3933,2.3938,2.394,2.3836,2.3993,2.4254,2.4279,2.3942,2.394,2.3937,0,2.4027,2.4069,2.414,2.4142,2.4112,2.4148,2.4138,2.4125,2.414,2.4151,2.4159,2.4179,2.4189,2.4205,2.4155,2.4091,2.4241,2.4143,2.4224,2.4226,2.426,2.4259,2.4527,2.4272,2.4271,2.4271,2.427,0,2.4232,2.4304,2.4226,2.427,2.4348,2.428,2.4359,2.4339,2.4329,2.4368,2.4291,2.433,2.4261,2.4293,2.4254,2.4325,2.4331,2.4315,2.4304,2.4321,2.4324,2.433,2.4317,2.4277,2.4276,2.4274,2.4273,0,2.446,2.441,2.4482,2.4447,2.444,2.4498,2.4469,2.4509,2.4477,2.4527,2.4536,2.4486,2.452,2.4471,2.4501,2.4474,2.4572,2.4544,2.4574,2.4565,2.4649,2.4642,2.4931,2.4965,2.4689,2.4692,2.4694,0,2.4594,2.4647,2.4616,2.4636,2.4629,2.4662,2.4676,2.4612,2.4629,2.4624,2.4665,2.4691,2.4709,2.4768,2.4736,2.4758,2.4729,2.4828,2.4732,2.4747,2.4729,2.4726,2.4731,2.4848,2.4852,2.4854,2.4857,0,2.4838,2.481,2.4831,2.4845,2.4862,2.487,2.4873,2.4894,2.4826,2.485,2.4882,2.4896,2.4924,2.4952,2.4965,2.4956,2.4896,2.4887,2.4907,2.4925,2.494,2.4932,2.4627,2.4881,2.4879,2.4877,2.4875,2.4874,2.5022,2.5063,2.5048,2.5074,2.5068,2.5072,2.5107,2.5078,2.5103,2.512,2.5081,2.5123,2.5113,2.5124,2.5121,2.5154,2.511,2.5139,2.5146,2.5155,2.5167,2.4936,2.5156,2.5155,2.5155,2.5154,2.5153,0,2.526,2.5245,2.527,2.5274,2.5295,2.5234,2.5233,2.5255,2.5292,2.5287,2.5305,2.5342,2.5368,2.5337,2.5358,2.539,2.5363,2.5397,2.5394,2.5393,2.5205,2.5185,2.5419,2.5419,2.5419,2.5419,2.5419,2.5419,2.5386,2.5453,2.5423,2.5487,2.5471,2.5509,2.5514,2.5517,2.5512,2.5556,2.5576,2.5555,2.554,2.5559,2.558,2.557,2.5581,2.5626,2.5607,2.5432,2.5406,2.5381,2.5362,2.5629,2.5629,2.5791,2.5792,2.5794]},{"header":{"parameterUnit":"m.s-1","parameterCategory":1,"la1":30.2991,"la2":30.254,"lo1":-89.0895,"lo2":-89.0444,"dy":0.0017,"dx":0.0017,"nx":28,"ny":28,"refTime":"2023-10-13T21:00:00:Z","depth":0,"parameterNumber":3,"parameterNumberName":"V-component_of_WINDS"},"data":[0,0,0,0,0,0,0,0,0,0,0,0,0,0,0,0,0,0,0,0,0,0,0,0,0,0,0,0,0,0,0,0,0,0,0,0,0,0,0,0,0,0,0,0,0,0,0,0,0,0,0,0,0,0,0,0,0,0,0.481,0.4809,0,0.4772,0.4772,0.4771,0.4722,0.4721,0.4721,0.472,0.4681,0.4681,0.4681,0,0,0,0,0,0,0,0,0,0,0,0,0,0.4837,0.4836,0.481,0.4809,0.4809,0.4772,0.4772,0.4771,0.4722,0.4721,0.472,0.4719,0.4682,0.4681,0.4681,0,0,0,0,0,0,0,0,0,0,0,0,0,0.4815,0.4836,0.481,0.478,0.4777,0.4772,0.4772,0.4771,0.4723,0.4721,0.472,0.4719,0.4682,0.4681,0.4681,0.4703,0,0,0.468,0.4679,0,0,0,0,0,0,0,0,0.4816,0.4814,0.4785,0.4782,0.4778,0.4751,0.4767,0.4748,0.4723,0.4743,0.472,0.4718,0.4705,0.4703,0.4699,0.4701,0.4699,0.468,0.4679,0.4679,0.4679,0,0,0,0,0,0,0,0.4818,0.4815,0.4795,0.4784,0.4781,0.4768,0.4763,0.4763,0.4732,0.4741,0.4738,0.4734,0.4703,0.4699,0.4697,0.4699,0.468,0.4679,0.4679,0.4679,0.4714,0.4715,0,0,0,0,0,0,0.4824,0.4817,0.4796,0.4794,0.4795,0.4768,0.4763,0.4761,0.4731,0.4726,0.4735,0.4732,0.47,0.4698,0.4696,0.4718,0.4679,0.4679,0.4679,0.4713,0.4715,0.4716,0,0,0,0,0,0,0.4825,0.4822,0.4797,0.4804,0.48,0.4769,0.4767,0.4761,0.4756,0.4727,0.4721,0.4737,0.4699,0.4696,0.4701,0.4716,0.4679,0.4678,0.4712,0.4714,0.4715,0.4764,0,0,0,0,0,0,0.4826,0.4823,0.4832,0.4805,0.48,0.4804,0.4768,0.4761,0.4756,0.4751,0.4727,0.4721,0.4698,0.4702,0.47,0.4715,0.4678,0.471,0.4713,0.4715,0.4761,0.4767,0.4773,0,0,0,0,0,0.4827,0.4847,0.4832,0.483,0.481,0.4805,0.4802,0.4775,0.4757,0.4765,0.4746,0.4722,0.4715,0.4703,0.4701,0.4716,0.4709,0.4712,0.4715,0.4758,0.4766,0.4773,0,0,0,0,0,0,0.4877,0.4843,0.4826,0.4839,0.4825,0.4797,0.4806,0.4785,0.4776,0.4772,0.4739,0.4733,0.4742,0.4729,0.4716,0.4734,0.4708,0.4711,0.4742,0.4749,0.4755,0.4758,0.4678,0,0,0,0,0,0.489,0.4889,0.4859,0.4873,0.4867,0.4838,0.4835,0.4815,0.4799,0.4793,0.4774,0.476,0.4753,0.4751,0.4744,0.4758,0.4752,0.4767,0.4773,0.4778,0.4781,0.4786,0.4792,0.4725,0.4725,0.4725,0,0,0.4916,0.4897,0.4899,0.4883,0.487,0.4869,0.4833,0.4834,0.4833,0.4793,0.4796,0.4781,0.4763,0.4772,0.4775,0.4762,0.4798,0.4782,0.4786,0.4786,0.4789,0.4796,0.4802,0.4726,0.4726,0.4726,0,0,0.4963,0.4949,0.4959,0.4946,0.4926,0.4906,0.4909,0.4883,0.4871,0.4874,0.4843,0.4841,0.4832,0.4819,0.4812,0.4851,0.4829,0.485,0.4881,0.4886,0.4892,0.4896,0.4909,0.4915,0.4852,0.4853,0.4853,0,0.4999,0.4997,0.4967,0.4969,0.4962,0.4925,0.4934,0.4923,0.4902,0.4898,0.4882,0.4869,0.4854,0.4859,0.4868,0.4864,0.4864,0.4853,0.4893,0.4898,0.4901,0.4914,0.4919,0.4855,0.4855,0.4855,0.4854,0,0.504,0.5039,0.5049,0.5029,0.5023,0.5029,0.4999,0.4996,0.4976,0.4957,0.4959,0.4939,0.4927,0.4926,0.4907,0.4928,0.492,0.4899,0.4873,0.4911,0.4922,0.4926,0.4859,0.4858,0.4857,0.4857,0,0,0.512,0.5082,0.5086,0.5076,0.5051,0.5049,0.5051,0.5039,0.5037,0.5023,0.5024,0.5016,0.4996,0.4988,0.4967,0.4971,0.5002,0.495,0.4949,0.496,0.5023,0.5038,0.5044,0.4987,0.4988,0.4988,0.5024,0,0.5163,0.5166,0.5138,0.5149,0.5147,0.511,0.5112,0.5096,0.5078,0.5073,0.5053,0.5047,0.5022,0.5016,0.5019,0.4998,0.5015,0.4995,0.4987,0.4987,0.4993,0.505,0.5067,0.5102,0.5028,0.5029,0.5029,0,0.5213,0.5201,0.5212,0.5184,0.5182,0.5185,0.517,0.5165,0.5146,0.5132,0.5121,0.5096,0.5096,0.507,0.5069,0.5056,0.505,0.5039,0.504,0.5038,0.5011,0.505,0.5112,0.5118,0.5036,0.5035,0.5035,0,0.527,0.5257,0.5261,0.5253,0.5221,0.5223,0.521,0.5189,0.5182,0.5169,0.5164,0.5151,0.5144,0.5134,0.5106,0.509,0.5107,0.5079,0.5095,0.5095,0.5101,0.5101,0.5163,0.5097,0.5097,0.5097,0.5097,0,0.532,0.5328,0.5285,0.5288,0.5295,0.5262,0.5269,0.5252,0.5233,0.5231,0.5198,0.5197,0.5159,0.5153,0.5131,0.5132,0.5129,0.5117,0.5111,0.512,0.5122,0.5117,0.5114,0.5098,0.5098,0.5098,0.5098,0,0.5386,0.5358,0.5359,0.5328,0.532,0.5327,0.5299,0.53,0.5278,0.5276,0.5273,0.524,0.5231,0.5201,0.5185,0.517,0.5177,0.5166,0.5184,0.518,0.5197,0.5196,0.5259,0.5265,0.5196,0.5196,0.5197,0,0.542,0.5425,0.5393,0.539,0.5377,0.5372,0.5364,0.5331,0.5325,0.5301,0.5304,0.5292,0.5281,0.5268,0.5242,0.5228,0.5216,0.5239,0.5214,0.5222,0.5216,0.5216,0.5216,0.5245,0.5246,0.5246,0.5247,0,0.5484,0.5469,0.546,0.5446,0.5438,0.5425,0.541,0.5409,0.5371,0.5366,0.5356,0.5347,0.5329,0.5317,0.5299,0.5284,0.5259,0.5255,0.5258,0.5267,0.5277,0.5271,0.5199,0.5254,0.5253,0.5253,0.5252,0.5252,0.5534,0.5536,0.5514,0.5504,0.5489,0.5476,0.5474,0.5452,0.5443,0.5427,0.5407,0.5399,0.5376,0.535,0.5336,0.5328,0.5315,0.5319,0.532,0.5322,0.5326,0.5278,0.5325,0.5325,0.5325,0.5324,0.5324,0,0.5595,0.5579,0.557,0.555,0.5542,0.5519,0.5501,0.5496,0.5489,0.547,0.5459,0.5447,0.5434,0.5406,0.5391,0.539,0.5378,0.5387,0.5387,0.5384,0.5339,0.5338,0.5397,0.5397,0.5397,0.5397,0.5397,0.5397,0.5626,0.5628,0.561,0.5604,0.5586,0.5578,0.557,0.5556,0.5541,0.5529,0.5518,0.55,0.5477,0.5459,0.5446,0.5438,0.5434,0.5447,0.5435,0.5394,0.5387,0.5381,0.5379,0.5446,0.5446,0.548,0.548,0.548]}]]